Okean-O - Orbit

View from above orbital plane
View from above orbital plane
View from above satellite
View from above satellite

Ground track
Ground track

The orbit data is extracted from the following two-line orbital elements,

1 25860U 99039A   13142.80223794  .00000532  00000-0  87322-4 0  9511
2 25860 097.9878 105.5953 0001187 133.4484 286.0307 14.74591113744617
Epoch (UTC): 22 May 2013 19:15:13
Eccentricity: 0.0001187
inclination: 97.9878°
perigee height: 645 km
apogee height: 647 km
right ascension of ascending node: 105.5953°
argument of perigee: 133.4484°
revolutions per day: 14.74591113
mean anomaly at epoch: 286.0307°
orbit number at epoch: 74461

The dashed part of the orbit path shows where the satellite is in the earth's shadow,  

Developed and maintained by Chris Peat, Heavens-Above GmbH. Please read the updated FAQ before sending e-mail. Imprint. DLR